Cloud_Cover
26 24 29 22 38 24 1 0 0 0 0 0 0 0 0 0 0 0 0 0 0 0 0 0 0 0 0 0 0 0 0 0 0 0 0 0 0 0 0 0 0 0 0
2 0 7 17 12 7 29 22 25 8 4 0 0 1 0 0 0 0 0 0 0 0 0 0 0 0 0 0 0 0 0 0 0 0 0 0 0 0 0 0 0 0 0
25 11 0 4 0 1 10 4 18 40 27 32 27 9 10 5 0 0 0 5 4 4 5 1 0 0 0 0 0 0 0 0 0 0 0 0 0 0 0 0 0 0 0
83 12 42 2 9 5 17 8 18 31 38 50 61 6 43 58 71 46 18 17 29 30 36 10 5 5 2 0 0 0 0 0 0 0 0 0 0 0 0 0 0 0 0
21 8 5 3 2 2 6 18 4 6 68 100 80 52 35 25 82 87 100 99 100 73 96 100 40 5 5 5 5 2 2 5 4 4 2 0 0 5 10 7 4 4 0
33 5 4 2 4 3 6 94 100 79 87 6 5 5 0 1 0 1 29 99 48 100 100 65 75 94 98 100 62 20 47 5 5 5 5 5 5 4 9 34 100 100 97
71 5 5 4 5 5 5 1 2 0 0 0 0 0 0 0 0 11 0 0 15 5 8 0 0 6 100 100 99 61 82 5 56 84 36 57 70 28 60 98 35 10 100
46 5 5 6 5 20 2 0 0 0 0 0 0 0 0 0 0 0 0 0 0 0 0 0 0 0 0 0 2 62 92 89 99 86 100 99 52 20 80 58 24 59 6
6 5 5 16 4 3 0 0 0 0 0 0 0 0 0 0 0 0 0 0 0 0 0 0 0 0 0 0 0 0 0 20 99 100 96 100 100 98 84 39 52 77 23
13 48 97 96 100 7 2 0 0 0 0 0 0 0 0 0 0 0 0 0 0 0 0 0 0 0 0 0 0 0 0 0 0 21 94 100 100 100 91 81 36 34 43
100 86 5 5 5 4 0 0 0 0 0 0 0 0 0 0 2 1 0 0 0 0 0 0 0 0 0 0 0 0 0 0 0 0 0 96 100 100 100 100 100 94 31
92 37 5 5 0 0 0 0 0 0 0 0 0 0 2 2 5 4 4 5 5 1 1 1 0 1 2 1 0 0 0 0 0 0 0 0 27 50 83 100 100 100 100
17 11 4 0 0 0 0 0 0 0 0 0 0 0 3 4 5 0 7 5 17 5 5 5 5 5 5 1 4 0 0 0 0 0 0 0 0 0 1 46 100 100 100
94 5 0 0 0 0 0 0 0 0 0 0 3 0 2 1 0 32 100 100 76 5 5 5 5 6 5 3 3 3 4 1 3 1 0 0 0 0 47 10 47 100 69
1 0 0 0 0 0 0 0 0 2 4 3 5 7 5 15 50 86 97 100 100 100 87 5 5 13 24 14 5 5 5 5 4 5 5 1 2 0 0 0 35 99 26
0 0 0 0 1 1 0 5 5 3 4 5 0 3 30 57 80 100 99 100 100 100 100 12 5 15 43 50 62 41 32 5 5 4 5 5 5 2 0 0 0 0 0
1 4 1 2 5 5 5 5 5 0 0 0 2 11 77 95 100 100 100 100 100 100 92 16 47 9 20 45 56 78 55 41 7 5 5 5 5 5 3 2 3 0 0
5 5 5 5 5 5 5 5 5 5 5 3 0 17 25 36 100 100 96 100 100 98 100 61 8 9 37 62 93 96 70 58 59 6 5 5 5 5 5 5 5 4 87
5 5 5 5 5 5 5 5 5 5 5 5 14 18 19 78 82 79 80 65 67 53 60 79 26 12 40 79 99 58 83 99 64 69 12 5 5 5 6 5 5 5 5
5 5 8 12 5 5 5 5 5 5 5 5 6 8 22 15 32 88 54 93 83 100 100 100 86 43 88 54 100 98 21 68 98 100 88 82 90 87 12 5 18 8 3
36 64 75 5 5 4 5 5 4 5 5 5 5 5 5 5 6 98 61 68 93 100 99 100 93 64 96 100 100 99 100 100 100 100 98 95 93 91 90 100 100 65 98
100 99 5 5 5 5 5 5 5 5 5 5 5 5 5 5 7 79 81 95 100 100 100 100 81 100 100 100 100 100 100 100 100 100 100 100 100 100 98 100 100 100 100
100 68 6 5 5 0 5 5 5 4 5 5 5 5 5 5 23 14 23 42 93 100 100 100 98 100 100 100 100 100 100 100 100 100 100 100 100 96 93 100 100 100 100
100 23 6 5 4 1 5 5 5 2 5 5 5 5 5 5 5 16 7 12 27 65 45 77 100 100 100 100 100 100 100 100 100 100 100 100 100 100 100 100 100 100 100
89 29 5 1 5 4 5 6 4 0 0 5 5 5 5 5 5 11 5 5 5 5 5 88 100 100 100 100 100 100 100 100 100 100 100 100 100 100 100 84 100 100 100
18 5 5 4 3 5 5 5 6 3 3 5 5 5 5 5 5 6 19 7 6 8 86 90 75 59 100 100 100 100 100 100 100 100 49 100 100 100 100 100 100 100 100